Rick Husband Amarillo International Airport
KAMA : now visible

Airfield :











YOU CAN JOIN US ON...

 
LOGIN :

Register | Disclaimer

   EN    FR    IT 

 









Legend :    VFR   Marginal VFR   IFR   Intensive IFR   Very Intensive IFR
Visi :
Ceiling :
>= 8 km
>= 3000ft
5 to 8 km
1000 to 3000 ft
1500m to 5 km
500 to 1000 ft
800 to 1500m
200 to 500 ft
< 800m
< 200 ft
Symbols :   Thunderstorms  Fog  Heavy snow  Heavy precipitations  Wind > 20 kt






- Airport Elevation : 3607 ft
- IATA code : AMA


KAMA - Rick Husband Amarillo International

CURRENT METAR :
  • 290353Z 19007KT 10SM CLR 25/14 A3014 RMK AO2 SLP143 T02500144

EXPIRED METARs :
  • 290253Z 18010KT 10SM CLR 27/14 A3013 RMK AO2 SLP141 T02720144 53011
  • 290153Z 18011KT 10SM CLR 28/14 A3012 RMK AO2 SLP138 T02830144

TAF KAMA
Valid from the 29 at 00:00 until the 30 at 00:00 UTC


282333Z 2900/2924 15013KT P6SM FEW120
FM291000 VRB06KT P6SM SKC
FM291800 15012KT P6SM FEW250
KZAB FIR / North America



MET'MAP, your aeronautical weather chart ! - Copyright ORBIFLY December 2007 - Disclaimer

ORBIFLY MET'MAP TEAM :

Programming & Development : Alexandra Zaïnal
Concept & original design : Baudouin d'Aumeries
Assistance for programming : Marc-Olivier Méhu
Technical & hardware support : Manuel Goepfert

Contact : metmap@orbifly.com




SOURCES & CREDITS :

   NOAA       Earth
Advisory